User: anonymous   Login
Location: Goheenville
(40.9070°N, 79.3720°W)
Time: 17:09:29
(UTC-04:00)
Language:

Cosmos 1727 Rocket - Orbit

View from above orbital plane
View from above orbital plane
View from above satellite
View from above satellite

Ground track
Ground track

The orbit data is extracted from the following two-line orbital elements,

1 16511U 86008B   15180.56843957  .00000081  00000-0  67585-4 0  9992
2 16511 082.9439 032.8394 0025320 128.1206 294.7533 13.75800506477468
Epoch (UTC): 29 June 2015 13:38:33
Eccentricity: 0.0025320
inclination: 82.9439°
perigee height: 960 km
apogee height: 997 km
right ascension of ascending node: 32.8394°
argument of perigee: 128.1206°
revolutions per day: 13.75800506
mean anomaly at epoch: 294.7533°
orbit number at epoch: 47746

The dashed part of the orbit path shows where the satellite is in the earth's shadow,  

DLR